星链-4183 (STARLINK-4183 )

导读 | 豆包AI

STARLINK-4183是美国太空探索技术公司SpaceX星链星座中的一颗卫星,于2022年7月7日发射入轨,属于星链低轨互联网星座的组网卫星,承担全球覆盖的卫星宽带互联网服务任务,运行在近地轨道,依托星链星座部署,服务全球用户的网络通信需求。

基本信息
目录编号:
53014
目录名称:
STARLINK-4183
国际标识:
2022-076AE
轨道中心:
EARTH
卫星名称:
星链-4183
卫星全名:
星链-4183 (STARLINK-4183 )
卫星状态:
在轨 (已飞行1393 天)
发射日期:
2022-07-07 UTC
国别 :
美国 (US)
星等 :
--
轨道信息
数据来源 国际轨道数据 AOE轨道数据
星历时间 2026-04-30T20:12:10+0800
9小时前
查看轨道信息
2026-04-25T08:00:00+0800
5天前
查看轨道信息
半长轴 6917.884km 6917.951km
偏心率 0.0001223 0.0001118
轨道倾角 53.217° 53.215°
近地点辐角 84.756° 42.389°
升交点赤经 211.497° 236.226°
平近点角 275.357° 260.432°
近地点 538.9km 539.04km
远地点 540.594km 540.588km
周期 95.438分钟 95.439分钟
每日圈数 15.08839 15.088171
详细信息
固有亮度:
5
最大亮度:
2.5
卫星平台:
Starlink v1.5
覆盖范围:
全球
运营商:
太空探索技术公司
运营商所在国:
美国
制造商(研发单位):
太空探索技术公司
制造商所在国:
美国
使用方式:
暂无
卫星简介
星链(Starlink)计划是由太空探索技术公司(SpaceX)提出的一个巨型低轨卫星互联网星座项目,计划在2019年至2024年间在太空搭建由约1.2万颗卫星组成的“星链”网络,其中1584颗将部署在地球上空550千米处的近地轨道,并从2020年开始工作。该卫星仍在工作。
2D轨道图
3D轨道图
轨道高度分析图
轨道倾角分析图
轨道综合分析图
查看轨道综合分析图